Location: ????
(30.2663°N, 31.2484°E)
Time: 02:23:12
(UTC+00:00)

Cosmos 1802 Rocket - Pass Details

Date: 27 September 2022
Orbit: 954 x 1011 km, 82.9° (Epoch: 30 November)

Event Time Altitude Azimuth Distance (km) Brightness Sun altitude
Rises 03:07:38 0° 200° (SSW) 3,728 6.8 -9.1°
Reaches altitude 10° 03:10:17 10° 206° (SSW) 2,780 6.1 -8.5°
Maximum altitude 03:16:24 47° 279° (W) 1,308 4.3 -7.2°
Drops below altitude 10° 03:22:30 10° 352° (N) 2,771 6.3 -5.9°
Sets 03:25:09 0° 358° (N) 3,716 7.0 -5.3°
